This demonstration page uses our WeatherBlox Daily Observations layout. Learn more.

Hourly Observations for October 5, 2015

Temp ( °F °C ) Dew Point ( °F °C ) Humidity (%) Winds ( mph kmh ) Pressure ( in mb ) Visibility ( mi km ) Precip ( " mm )
12:15 am 00:15 Clear 47 8.5 43 6 84 84 E 6 9 30.15 1021 10 16.0934 0 0
12:35 am 00:35 Clear 47 8.5 43 6.1 85 85 E 6 9 30.15 1021 10 16.0934 0 0
12:55 am 00:55 Clear 48 9.1 43 5.9 81 81 E 5 7 30.15 1021 10 16.0934 0 0
1:15 am 01:15 Partly Cloudy 48 9.1 43 6 81 81 E 6 9 30.15 1021 10 16.0934 0 0
1:35 am 01:35 Cloudy 49 9.5 44 6.5 82 82 ESE 8 13 30.15 1021 10 16.0934 0 0
1:55 am 01:55 Cloudy 50 10 43 6.3 78 78 ESE 8 13 30.15 1021 10 16.0934 0 0
2:15 am 02:15 Cloudy 50 10.2 43 6 75 75 SE 7 11 30.15 1021 10 16.0934 0 0
2:35 am 02:35 Cloudy 51 10.3 42 5.8 74 74 ESE 8 13 30.15 1021 10 16.0934 0 0
2:55 am 02:55 Cloudy 51 10.3 43 6 75 75 SE 8 13 30.15 1021 10 16.0934 0 0
3:15 am 03:15 Cloudy 51 10.6 43 5.9 73 73 SE 7 11 30.12 1020 10 16.0934 0 0
3:35 am 03:35 Cloudy 51 10.8 42 5.5 70 70 SE 8 13 30.12 1020 10 16.0934 0 0
3:55 am 03:55 Cloudy 51 10.8 43 6 72 72 SE 6 9 30.12 1020 10 16.0934 0 0
4:15 am 04:15 Cloudy 51 10.7 43 6.1 73 73 SE 7 11 30.12 1020 10 16.0934 0 0
4:35 am 04:35 Cloudy 51 10.8 43 6.2 73 73 SSE 5 7 30.12 1020 10 16.0934 0 0
4:55 am 04:55 Cloudy 52 11 44 6.5 74 74 SSE 7 11 30.12 1020 10 16.0934 0 0
5:15 am 05:15 Cloudy 52 11 44 6.7 75 75 SSE 8 13 30.12 1020 10 16.0934 0 0
5:35 am 05:35 Cloudy 52 11.1 45 7 76 76 SE 6 9 30.12 1020 10 16.0934 0 0
5:55 am 05:55 Cloudy 52 11.1 45 7.2 77 77 SSE 6 9 30.12 1020 10 16.0934 0 0
6:15 am 06:15 Cloudy 52 11.1 45 7.3 78 78 SSE 6 9 30.15 1021 10 16.0934 0 0
6:35 am 06:35 Cloudy 52 11.1 45 7.4 78 78 SE 6 9 30.15 1021 10 16.0934 0 0
6:55 am 06:55 Cloudy 52 11.1 46 7.5 79 79 SE 7 11 30.15 1021 10 16.0934 0 0
7:15 am 07:15 Cloudy 52 11.2 46 7.6 79 79 SSE 7 11 30.12 1020 10 16.0934 0 0
7:35 am 07:35 Cloudy 52 11.3 46 7.7 79 79 SSE 8 13 30.15 1021 10 16.0934 0 0
7:55 am 07:55 Cloudy 52 11.3 46 7.7 79 79 SSE 7 11 30.15 1021 10 16.0934 0 0
8:15 am 08:15 Cloudy 53 11.5 46 7.7 78 78 SSE 7 11 30.15 1021 10 16.0934 0 0
8:35 am 08:35 Cloudy 53 11.6 46 7.5 76 76 S 7 11 30.15 1021 10 16.0934 0 0
8:55 am 08:55 Cloudy 54 12 46 7.5 74 74 SSE 7 11 30.15 1021 10 16.0934 0 0
9:15 am 09:15 Cloudy 54 12.2 45 7.3 72 72 SSE 8 13 30.15 1021 10 16.0934 0 0
9:35 am 09:35 Cloudy 55 12.9 45 7.2 69 69 S 10 17 30.12 1020 10 16.0934 0 0
9:55 am 09:55 Cloudy 56 13.5 45 7.3 66 66 SSE 10 17 30.12 1020 10 16.0934 0 0
10:15 am 10:15 Cloudy 57 13.7 44 6.9 64 64 S 12 19 30.12 1020 10 16.0934 0 0
10:35 am 10:35 Cloudy 58 14.3 45 7.1 62 62 S 12 19 30.12 1020 10 16.0934 0 0
10:55 am 10:55 Cloudy 58 14.2 44 6.8 61 61 S 8 13 30.12 1020 10 16.0934 0 0
11:15 am 11:15 Cloudy 58 14.6 44 6.9 60 60 S 7 11 30.12 1020 10 16.0934 0 0
11:35 am 11:35 Cloudy 60 15.7 44 6.9 56 56 S 7 11 30.12 1020 10 16.0934 0 0
11:55 am 11:55 Cloudy 63 17.2 44 6.9 51 51 S 8 13 30.12 1020 10 16.0934 0 0
12:15 pm 12:15 Cloudy 63 17.4 44 6.7 50 50 S 10 17 30.12 1020 10 16.0934 0 0
12:35 pm 12:35 Cloudy 64 17.8 43 6.3 47 47 S 15 24 30.09 1019 10 16.0934 0 0
12:55 pm 12:55 Cloudy 64 17.7 44 6.9 49 49 S 13 20 30.06 1018 10 16.0934 0 0
1:15 pm 13:15 Cloudy 64 18 44 6.7 48 48 S 10 17 30.06 1018 10 16.0934 0 0
1:35 pm 13:35 Cloudy 65 18.3 44 6.5 46 46 S 10 17 30.06 1018 10 16.0934 0 0
1:55 pm 13:55 Cloudy 65 18.1 44 6.7 47 47 S 12 19 30.06 1018 10 16.0934 0 0
2:15 pm 14:15 Cloudy 65 18.3 44 6.6 47 47 S 12 19 30.06 1018 10 16.0934 0 0
2:35 pm 14:35 Cloudy 64 18 44 6.8 48 48 SSE 13 20 30.06 1018 10 16.0934 0 0
2:55 pm 14:55 Cloudy 65 18.1 44 6.5 47 47 S 10 17 30.06 1018 10 16.0934 0 0
3:15 pm 15:15 Cloudy 65 18.2 44 6.7 47 47 S 10 17 30.06 1018 10 16.0934 0 0
3:35 pm 15:35 Cloudy 67 19.2 45 7.4 47 47 SSE 12 19 30.06 1018 10 16.0934 0 0
3:55 pm 15:55 Cloudy 67 19.4 45 7.2 45 45 SSE 10 17 30.03 1017 10 16.0934 0 0
4:15 pm 16:15 Mostly Cloudy 68 20.1 46 7.8 45 45 SSE 12 19 30.03 1017 10 16.0934 0 0
4:35 pm 16:35 Partly Cloudy 68 20.1 46 7.8 45 45 SSE 10 17 30.03 1017 10 16.0934 0 0
4:55 pm 16:55 Sunny 69 20.6 46 7.7 44 44 S 10 17 30 1016 10 16.0934 0 0
5:15 pm 17:15 Sunny 69 20.5 47 8.1 45 45 SE 12 19 30 1016 10 16.0934 0 0
5:35 pm 17:35 Sunny 68 20.1 46 7.7 45 45 SSE 13 20 30.03 1017 10 16.0934 0 0
5:55 pm 17:55 Sunny 67 19.7 45 7.2 44 44 SSE 9 15 30.03 1017 10 16.0934 0 0
6:15 pm 18:15 Sunny 66 19 46 8 49 49 SSE 8 13 30.03 1017 10 16.0934 0 0
6:35 pm 18:35 Sunny 66 18.9 47 8.1 50 50 SSE 8 13 30.03 1017 10 16.0934 0 0
6:55 pm 18:55 Sunny 64 18 47 8.2 53 53 SE 8 13 30.03 1017 10 16.0934 0 0
7:15 pm 19:15 Clear 62 16.7 47 8.1 57 57 SE 8 13 30.03 1017 10 16.0934 0 0
7:35 pm 19:35 Clear 59 15.2 46 8 62 62 SE 7 11 30.09 1019 10 16.0934 0 0
7:55 pm 19:55 Clear 58 14.3 46 8 66 66 SE 8 13 30.09 1019 10 16.0934 0 0
8:15 pm 20:15 Clear 57 13.7 46 7.7 67 67 SE 7 11 30.09 1019 10 16.0934 0 0
8:35 pm 20:35 Clear 56 13.1 46 7.6 70 70 SE 7 11 30.12 1020 10 16.0934 0 0
8:55 pm 20:55 Clear 55 12.8 46 7.7 71 71 SE 8 13 30.12 1020 10 16.0934 0 0
9:15 pm 21:15 Clear 54 12.4 46 7.7 73 73 SE 7 11 30.12 1020 10 16.0934 0 0
9:35 pm 21:35 Clear 54 12.1 46 7.7 75 75 SE 7 11 30.12 1020 10 16.0934 0 0
9:55 pm 21:55 Clear 53 11.6 46 7.6 77 77 SE 7 11 30.12 1020 10 16.0934 0 0
10:15 pm 22:15 Clear 53 11.4 46 7.6 78 78 SE 7 11 30.12 1020 10 16.0934 0 0
10:35 pm 22:35 Clear 52 11 46 7.5 79 79 SE 7 11 30.12 1020 10 16.0934 0 0
10:55 pm 22:55 Clear 51 10.6 46 7.5 81 81 SE 7 11 30.12 1020 10 16.0934 0 0
11:15 pm 23:15 Clear 51 10.6 46 7.5 81 81 SE 7 11 30.12 1020 10 16.0934 0 0
11:35 pm 23:35 Clear 50 10.1 45 7.2 82 82 SE 6 9 30.15 1021 10 16.0934 0 0
11:55 pm 23:55 Clear 50 10 45 7.2 83 83 SE 6 9 30.15 1021 10 16.0934 0 0

Powered by AerisWeather